Scottsboro, AL

7:40 PM CST on November 24, 2017 (GMT -0600)
Scottsboro

Weather History for K4A6 - November, 2012

Change the Weather History Date:

Tuesday, November 20, 2012

  Actual Average (KHSV) Record (KHSV)
Temperature  
Mean Temperature 52 °F -  
Max Temperature 66 °F 60 °F 79 °F (1942)
Min Temperature 37 °F 39 °F 10 °F (1914)
Degree Days  
Heating Degree Days 14    
Growing Degree Days 2 (Base 50)    
Moisture  
Dew Point 42 °F    
Average Humidity 69    
Maximum Humidity 100    
Minimum Humidity 40    
Precipitation  
Precipitation 0.00 in - - ()
Sea Level Pressure  
Sea Level Pressure 30.15 in    
Wind  
Wind Speed - (North)    
Max Wind Speed -    
Max Gust Speed -    
Visibility 3 miles    
Events      
Averages and records for this station are not official NWS values.
T = Trace of Precipitation, MM = Missing Value Source: NWS Daily Summary

Daily Weather History Graph

Daily Weather History Graph

Search for Another Location

Airport or City:

Trip Planner

Search our weather history database for the weather conditions in past years. The results will help you decide how hot, cold, wet, or windy it might be!

Date:

Astronomy

Nov. 20, 2012 Rise Set
Actual Time 6:23 AM CST 4:36 PM CST
Civil Twilight 5:56 AM CST 5:03 PM CST
Nautical Twilight 5:25 AM CST 5:33 PM CST
Astronomical Twilight 4:55 AM CST 6:04 PM CST
Moon 12:05 PM CST (11/20) 11:57 PM CST (11/20)
Length of Visible Light 11h 07m
Length of Day
10h 12m
First Quarter, 51% of the Moon is Illuminated
Nov 20
First Quarter
Nov 28
Full
Dec 6
Last Quarter
Dec 13
New
Dec 19
First Quarter

Hourly Weather History & Observations

Time (CST) Temp. Dew Point Humidity Pressure Visibility Wind Dir Wind Speed Gust Speed Precip Events Conditions
12:15 AM 41.0 °F 37.4 °F 87% 30.21 in 4.0 mi North - - N/A   Mostly Cloudy
12:35 AM 42.8 °F 39.2 °F 87% 30.21 in 3.0 mi North - - N/A   Overcast
12:55 AM 44.6 °F 39.2 °F 81% 30.20 in 4.0 mi North - - N/A   Overcast
1:15 AM 44.6 °F 39.2 °F 81% 30.20 in 4.0 mi North - - N/A   Overcast
1:35 AM 44.6 °F 39.2 °F 81% 30.20 in 4.0 mi North - - N/A   Overcast
1:55 AM 42.8 °F 39.2 °F 87% 30.19 in 4.0 mi North - - N/A   Overcast
2:15 AM 44.6 °F 39.2 °F 81% 30.19 in 4.0 mi North - - N/A   Scattered Clouds
2:35 AM 42.8 °F 39.2 °F 87% 30.19 in 3.0 mi North - - N/A   Clear
5:55 AM 39.2 °F 37.4 °F 93% 30.20 in 3.0 mi North - - N/A   Partly Cloudy
6:15 AM 37.4 °F 37.4 °F 100% 30.20 in 3.0 mi North - - N/A   Clear
6:35 AM 37.4 °F 35.6 °F 93% 30.21 in 1.0 mi North - - N/A   Mostly Cloudy
6:55 AM 39.2 °F 37.4 °F 93% 30.21 in 2.5 mi North - - N/A   Mostly Cloudy
7:15 AM 39.2 °F 37.4 °F 93% 30.22 in 2.0 mi North - - N/A   Overcast
7:35 AM 41.0 °F 39.2 °F 93% 30.22 in 2.0 mi North - - N/A   Mostly Cloudy
7:55 AM 44.6 °F 39.2 °F 81% 30.22 in 2.5 mi North - - N/A   Clear
8:15 AM 46.4 °F 41.0 °F 81% 30.22 in 2.5 mi North - - N/A   Haze
8:35 AM 48.2 °F 41.0 °F 76% 30.22 in 2.5 mi North - - N/A   Haze
8:55 AM 51.8 °F 42.8 °F 71% 30.22 in 2.5 mi North - - N/A   Haze
9:15 AM 53.6 °F 42.8 °F 67% 30.22 in 3.0 mi North - - N/A   Haze
9:35 AM 55.4 °F 42.8 °F 63% 30.21 in 2.5 mi North - - N/A   Haze
10:15 AM 59.0 °F 44.6 °F 59% 30.20 in 2.5 mi North - - N/A   Haze
10:35 AM 59.0 °F 44.6 °F 59% 30.19 in 3.0 mi North - - N/A   Haze
10:55 AM 62.6 °F 44.6 °F 52% 30.17 in 3.0 mi North - - N/A   Haze
11:15 AM 62.6 °F 44.6 °F 52% 30.16 in 3.0 mi North - - N/A   Haze
11:35 AM 64.4 °F 44.6 °F 49% 30.15 in 3.0 mi North - - N/A   Haze
11:55 AM 64.4 °F 44.6 °F 49% 30.14 in 3.0 mi North - - N/A   Haze
12:15 PM 66.2 °F 44.6 °F 46% 30.13 in 3.0 mi North - - N/A   Haze
12:35 PM 66.2 °F 42.8 °F 43% 30.12 in 3.0 mi North - - N/A   Haze
12:55 PM 66.2 °F 42.8 °F 43% 30.12 in 3.0 mi North - - N/A   Haze
1:15 PM 66.2 °F 42.8 °F 43% 30.11 in 3.0 mi North - - N/A   Haze
1:35 PM 66.2 °F 42.8 °F 43% 30.10 in 3.0 mi North - - N/A   Haze
1:55 PM 66.2 °F 44.6 °F 46% 30.09 in 4.0 mi North - - N/A   Haze
2:15 PM 66.2 °F 44.6 °F 46% 30.09 in 3.0 mi North - - N/A   Haze
2:55 PM 66.2 °F 44.6 °F 46% 30.09 in 3.0 mi North - - N/A   Haze
3:15 PM 66.2 °F 42.8 °F 43% 30.09 in 4.0 mi North - - N/A   Haze
3:55 PM 66.2 °F 41.0 °F 40% 30.08 in 3.0 mi North - - N/A   Haze
4:15 PM 64.4 °F 41.0 °F 42% 30.08 in 3.0 mi North - - N/A   Haze
4:35 PM 64.4 °F 39.2 °F 40% 30.09 in 3.0 mi North - - N/A   Haze
4:55 PM 59.0 °F 42.8 °F 55% 30.09 in 5.0 mi North - - N/A   Haze
5:15 PM 57.2 °F 41.0 °F 55% 30.09 in 4.0 mi North - - N/A   Haze
5:35 PM 55.4 °F 42.8 °F 63% 30.09 in 4.0 mi North - - N/A   Haze
5:55 PM 53.6 °F 44.6 °F 72% 30.10 in 4.0 mi North - - N/A   Haze
6:15 PM 55.4 °F 44.6 °F 67% 30.10 in 3.0 mi North - - N/A   Haze
6:35 PM 53.6 °F 44.6 °F 72% 30.11 in 4.0 mi North - - N/A   Haze
6:55 PM 53.6 °F 44.6 °F 72% 30.11 in 4.0 mi North - - N/A   Haze
7:15 PM 53.6 °F 44.6 °F 72% 30.12 in 4.0 mi North - - N/A   Haze
7:35 PM 53.6 °F 44.6 °F 72% 30.12 in 4.0 mi North - - N/A   Haze
7:55 PM 53.6 °F 44.6 °F 72% 30.13 in 4.0 mi North - - N/A   Haze
8:15 PM 53.6 °F 44.6 °F 72% 30.13 in 4.0 mi North - - N/A   Haze
8:35 PM 51.8 °F 44.6 °F 76% 30.13 in 4.0 mi North - - N/A   Haze
8:55 PM 51.8 °F 44.6 °F 76% 30.14 in 5.0 mi North - - N/A   Haze
9:15 PM 51.8 °F 44.6 °F 76% 30.13 in 4.0 mi North - - N/A   Haze
9:35 PM 51.8 °F 44.6 °F 76% 30.13 in 4.0 mi North - - N/A   Haze
9:55 PM 51.8 °F 44.6 °F 76% 30.14 in 4.0 mi North - - N/A   Haze
10:15 PM 51.8 °F 44.6 °F 76% 30.13 in 4.0 mi North - - N/A   Haze
10:35 PM 51.8 °F 44.6 °F 76% 30.13 in 4.0 mi North - - N/A   Haze
10:55 PM 51.8 °F 44.6 °F 76% 30.13 in 4.0 mi North - - N/A   Haze
11:15 PM 51.8 °F 46.4 °F 82% 30.13 in 4.0 mi North - - N/A   Haze
11:35 PM 51.8 °F 46.4 °F 82% 30.12 in 3.0 mi North - - N/A   Haze
11:55 PM 51.8 °F 46.4 °F 82% 30.12 in 4.0 mi North - - N/A   Haze